QPF
0.01 0.01 0.01 0.01 0.01 0.01 0.01 0.01 0.02 0.02 0.02 0.02 0.02 0.02 0.02 0.02 0.02 0.02 0.02 0.02 0.02 0.02 0.02 0.03 0.03 0.02 0.02 0.04 0.04 0.04 0.05 0.07 0.07 0.05 0.03 0.02 0.02 0.03 0.03 0.03 0.02 0.03 0.04 0.04
0.01 0.01 0.01 0.01 0.01 0.01 0.01 0.01 0.02 0.02 0.02 0.02 0.02 0.02 0.02 0.02 0.03 0.03 0.03 0.03 0.03 0.02 0.03 0.03 0.03 0.03 0.02 0.03 0.03 0.02 0.03 0.03 0.04 0.05 0.04 0.03 0.03 0.03 0.04 0.04 0.05 0.04 0.04 0.03
0.02 0.01 0.02 0.01 0.01 0.01 0.02 0.03 0.02 0.02 0.03 0.02 0.02 0.02 0.02 0.03 0.04 0.04 0.05 0.05 0.04 0.02 0.02 0.02 0.03 0.03 0.03 0.02 0.02 0.02 0.02 0.02 0.02 0.03 0.04 0.03 0.03 0.02 0.03 0.04 0.05 0.05 0.05 0.05
0.02 0.02 0.01 0.01 0.01 0.01 0.02 0.03 0.02 0.02 0.02 0.02 0.02 0.02 0.02 0.03 0.05 0.06 0.06 0.06 0.05 0.03 0.03 0.03 0.03 0.03 0.02 0.01 0.01 0.01 0.01 0.01 0.02 0.02 0.02 0.02 0.02 0.02 0.03 0.03 0.04 0.04 0.05 0.06
0.02 0.02 0.01 0.01 0.01 0.02 0.03 0.03 0.01 0.01 0.01 0.02 0.01 0.02 0.02 0.03 0.08 0.06 0.05 0.06 0.08 0.07 0.05 0.04 0.03 0.02 0.02 0.02 0.02 0.02 0.02 0.02 0.01 0.02 0.02 0.02 0.01 0.02 0.02 0.03 0.04 0.04 0.04 0.04
0.03 0.02 0.02 0.01 0.01 0.01 0.03 0.02 0.01 0.01 0.01 0.02 0.02 0.02 0.03 0.05 0.08 0.06 0.04 0.05 0.08 0.09 0.08 0.06 0.03 0.02 0.02 0.02 0.02 0.02 0.02 0.02 0.02 0.01 0.01 0.01 0.01 0.02 0.02 0.03 0.04 0.04 0.04 0.05
0.03 0.03 0.04 0.02 0.02 0.02 0.03 0.02 0.01 0.01 0.01 0.02 0.02 0.02 0.02 0.05 0.07 0.05 0.05 0.05 0.07 0.07 0.09 0.07 0.05 0.03 0.02 0.02 0.02 0.02 0.02 0.02 0.02 0.02 0.01 0.01 0.02 0.03 0.03 0.03 0.04 0.04 0.04 0.05
0.03 0.05 0.08 0.02 0.02 0.03 0.02 0.01 0.01 0.01 0.02 0.02 0.02 0.02 0.02 0.04 0.05 0.05 0.05 0.05 0.06 0.07 0.08 0.06 0.05 0.03 0.02 0.02 0.02 0.02 0.03 0.03 0.02 0.01 0.01 0.01 0.01 0.02 0.03 0.04 0.04 0.04 0.04 0.04
0.04 0.06 0.05 0.02 0.02 0.02 0.01 0.01 0.02 0.01 0.01 0.02 0.04 0.03 0.03 0.04 0.04 0.05 0.05 0.06 0.06 0.07 0.07 0.06 0.04 0.03 0.02 0.02 0.02 0.02 0.02 0.03 0.02 0.01 0.01 0.01 0.01 0.03 0.04 0.04 0.04 0.04 0.04 0.04
0.03 0.05 0.05 0.04 0.03 0.03 0.03 0.02 0.02 0.02 0.02 0.03 0.05 0.05 0.06 0.06 0.06 0.07 0.06 0.06 0.05 0.05 0.06 0.05 0.03 0.02 0.02 0.02 0.01 0.02 0.02 0.02 0.02 0.01 0.01 0.01 0.01 0.02 0.06 0.07 0.07 0.07 0.06 0.06
0.05 0.05 0.05 0.05 0.05 0.05 0.05 0.05 0.04 0.05 0.04 0.04 0.05 0.06 0.06 0.06 0.07 0.07 0.07 0.06 0.05 0.05 0.05 0.05 0.03 0.03 0.02 0.01 0.01 0.01 0.02 0.01 0.01 0.01 0.01 0.01 0.02 0.03 0.07 0.10 0.13 0.11 0.10 0.10
0.06 0.06 0.06 0.06 0.06 0.06 0.06 0.06 0.04 0.04 0.04 0.04 0.04 0.04 0.04 0.03 0.03 0.04 0.05 0.06 0.07 0.06 0.05 0.05 0.04 0.04 0.03 0.02 0.02 0.02 0.02 0.01 0.01 0.01 0.01 0.01 0.02 0.04 0.06 0.08 0.10 0.10 0.09 0.07
0.04 0.05 0.05 0.04 0.05 0.05 0.05 0.03 0.03 0.02 0.02 0.02 0.02 0.01 0.01 0.01 0.03 0.03 0.03 0.04 0.05 0.05 0.05 0.05 0.04 0.04 0.03 0.02 0.02 0.02 0.01 0.02 0.02 0.01 0.01 0.01 0.01 0.03 0.04 0.04 0.04 0.04 0.06 0.06
0.03 0.03 0.03 0.03 0.04 0.04 0.03 0.03 0.02 0.02 0.01 0.01 0.00 0.00 0.00 0.01 0.02 0.04 0.04 0.04 0.04 0.04 0.04 0.04 0.05 0.05 0.03 0.02 0.03 0.03 0.02 0.02 0.02 0.02 0.01 0.01 0.01 0.02 0.03 0.02 0.01 0.01 0.01 0.01
0.03 0.02 0.03 0.04 0.05 0.04 0.03 0.02 0.02 0.02 0.01 0.01 0.01 0.01 0.01 0.01 0.02 0.05 0.07 0.06 0.05 0.06 0.06 0.04 0.03 0.02 0.02 0.02 0.03 0.03 0.02 0.02 0.02 0.02 0.01 0.01 0.02 0.02 0.02 0.02 0.02 0.01 0.01 0.01
0.06 0.04 0.05 0.04 0.05 0.05 0.05 0.04 0.03 0.03 0.02 0.01 0.01 0.01 0.01 0.01 0.02 0.05 0.08 0.09 0.08 0.07 0.07 0.05 0.02 0.02 0.02 0.03 0.03 0.02 0.02 0.01 0.01 0.01 0.01 0.02 0.02 0.02 0.02 0.02 0.02 0.01 0.01 0.01
0.06 0.04 0.05 0.05 0.04 0.04 0.05 0.04 0.02 0.02 0.02 0.02 0.01 0.01 0.01 0.01 0.02 0.04 0.05 0.07 0.09 0.10 0.08 0.06 0.04 0.02 0.02 0.02 0.02 0.01 0.01 0.01 0.00 0.00 0.00 0.01 0.01 0.02 0.02 0.02 0.02 0.02 0.01 0.02
0.05 0.05 0.04 0.05 0.04 0.03 0.03 0.02 0.01 0.01 0.01 0.01 0.01 0.00 0.01 0.01 0.02 0.02 0.03 0.05 0.08 0.09 0.09 0.07 0.06 0.05 0.04 0.03 0.03 0.02 0.01 0.00 0.00 0.00 0.00 0.01 0.01 0.01 0.02 0.03 0.03 0.02 0.02 0.02
0.03 0.03 0.03 0.04 0.04 0.03 0.03 0.02 0.01 0.01 0.01 0.01 0.01 0.01 0.01 0.01 0.01 0.01 0.02 0.03 0.05 0.07 0.07 0.06 0.07 0.06 0.04 0.04 0.04 0.04 0.02 0.01 0.01 0.00 0.00 0.00 0.01 0.02 0.03 0.04 0.05 0.04 0.04 0.02
0.03 0.03 0.03 0.03 0.03 0.02 0.02 0.01 0.01 0.01 0.01 0.02 0.02 0.01 0.02 0.02 0.01 0.01 0.02 0.03 0.03 0.05 0.07 0.06 0.05 0.05 0.03 0.02 0.03 0.03 0.03 0.03 0.02 0.01 0.01 0.01 0.01 0.02 0.03 0.05 0.06 0.06 0.04 0.03
0.04 0.03 0.03 0.04 0.02 0.02 0.01 0.01 0.00 0.00 0.01 0.01 0.01 0.02 0.02 0.03 0.02 0.02 0.02 0.02 0.02 0.03 0.05 0.06 0.05 0.05 0.04 0.02 0.01 0.02 0.02 0.02 0.02 0.02 0.02 0.02 0.02 0.03 0.04 0.04 0.04 0.07 0.06 0.05
0.03 0.03 0.03 0.03 0.03 0.02 0.01 0.01 0.01 0.01 0.01 0.01 0.01 0.01 0.02 0.02 0.02 0.02 0.02 0.01 0.01 0.02 0.02 0.04 0.06 0.05 0.06 0.05 0.02 0.01 0.01 0.01 0.01 0.02 0.02 0.02 0.03 0.03 0.03 0.03 0.03 0.03 0.04 0.05
0.01 0.03 0.05 0.05 0.05 0.04 0.02 0.02 0.02 0.02 0.01 0.01 0.02 0.01 0.02 0.02 0.01 0.01 0.01 0.01 0.01 0.02 0.01 0.02 0.04 0.05 0.05 0.07 0.06 0.03 0.01 0.01 0.01 0.01 0.01 0.02 0.02 0.03 0.03 0.03 0.03 0.03 0.03 0.04
0.02 0.05 0.07 0.09 0.07 0.04 0.02 0.03 0.03 0.02 0.02 0.02 0.02 0.01 0.02 0.01 0.01 0.01 0.01 0.01 0.01 0.01 0.01 0.01 0.02 0.02 0.02 0.03 0.05 0.05 0.04 0.03 0.01 0.01 0.01 0.01 0.01 0.02 0.02 0.03 0.03 0.03 0.03 0.03
0.04 0.05 0.07 0.07 0.06 0.04 0.03 0.02 0.02 0.02 0.01 0.01 0.01 0.00 0.00 0.00 0.01 0.01 0.01 0.01 0.01 0.01 0.01 0.02 0.02 0.01 0.01 0.01 0.02 0.03 0.04 0.05 0.04 0.03 0.01 0.01 0.01 0.01 0.01 0.01 0.01 0.02 0.02 0.03
0.03 0.03 0.04 0.04 0.04 0.03 0.03 0.02 0.01 0.01 0.01 0.01 0.01 0.00 0.00 0.00 0.00 0.00 0.00 0.00 0.01 0.01 0.02 0.02 0.02 0.02 0.01 0.01 0.01 0.02 0.03 0.03 0.04 0.04 0.03 0.02 0.01 0.01 0.01 0.01 0.01 0.01 0.02 0.02
0.03 0.03 0.04 0.04 0.03 0.02 0.03 0.03 0.02 0.02 0.01 0.01 0.01 0.01 0.01 0.01 0.00 0.00 0.00 0.00 0.01 0.02 0.02 0.02 0.02 0.01 0.01 0.01 0.01 0.01 0.01 0.01 0.01 0.01 0.02 0.02 0.02 0.02 0.01 0.01 0.01 0.01 0.01 0.01
MSLP
1005.52 1005.28 1005.00 1004.67 1004.29 1003.83 1003.29 1002.67 1001.96 1001.17 1000.33 999.49 998.69 997.99 997.41 996.99 996.72 996.59 996.56 996.58 996.62 996.63 996.60 996.52 996.42 996.35 996.34 996.45 996.72 997.19 997.85 998.70 999.69 1000.78 1001.93 1003.08 1004.17 1005.18 1006.08 1006.88 1007.56 1008.14 1008.64 1009.08
1004.70 1004.35 1003.92 1003.43 1002.88 1002.29 1001.68 1001.03 1000.38 999.71 999.04 998.39 997.78 997.22 996.73 996.32 995.98 995.72 995.52 995.37 995.26 995.17 995.11 995.10 995.14 995.27 995.50 995.87 996.39 997.05 997.86 998.80 999.84 1000.93 1002.05 1003.15 1004.20 1005.17 1006.06 1006.84 1007.53 1008.12 1008.63 1009.07
1003.82 1003.40 1002.88 1002.29 1001.66 1001.01 1000.37 999.76 999.19 998.66 998.16 997.70 997.26 996.83 996.41 995.99 995.59 995.21 994.85 994.53 994.28 994.11 994.04 994.09 994.26 994.57 995.03 995.62 996.35 997.19 998.13 999.13 1000.18 1001.25 1002.30 1003.34 1004.32 1005.25 1006.10 1006.87 1007.55 1008.16 1008.67 1009.11
1003.01 1002.54 1001.99 1001.37 1000.71 1000.06 999.45 998.91 998.45 998.06 997.73 997.44 997.15 996.85 996.50 996.09 995.65 995.17 994.70 994.27 993.91 993.68 993.61 993.71 993.99 994.46 995.09 995.86 996.74 997.70 998.71 999.73 1000.75 1001.76 1002.73 1003.67 1004.57 1005.43 1006.24 1006.98 1007.66 1008.27 1008.79 1009.23
1002.35 1001.88 1001.33 1000.71 1000.08 999.47 998.92 998.47 998.12 997.88 997.70 997.57 997.43 997.24 996.98 996.62 996.18 995.67 995.15 994.66 994.27 994.02 993.96 994.10 994.47 995.04 995.78 996.65 997.61 998.61 999.62 1000.61 1001.56 1002.47 1003.34 1004.17 1004.97 1005.76 1006.51 1007.22 1007.89 1008.49 1009.02 1009.45
1001.92 1001.46 1000.92 1000.34 999.76 999.21 998.74 998.38 998.15 998.02 997.98 997.99 997.99 997.93 997.78 997.51 997.13 996.67 996.17 995.70 995.32 995.09 995.07 995.26 995.67 996.29 997.07 997.97 998.93 999.90 1000.85 1001.75 1002.59 1003.37 1004.11 1004.83 1005.53 1006.23 1006.92 1007.60 1008.24 1008.83 1009.34 1009.75
1001.73 1001.28 1000.77 1000.24 999.71 999.23 998.83 998.56 998.41 998.39 998.47 998.60 998.73 998.81 998.79 998.65 998.39 998.04 997.65 997.26 996.96 996.79 996.82 997.04 997.48 998.10 998.86 999.71 1000.60 1001.48 1002.32 1003.09 1003.78 1004.43 1005.04 1005.63 1006.23 1006.84 1007.47 1008.10 1008.70 1009.26 1009.74 1010.12
1001.74 1001.31 1000.84 1000.35 999.88 999.46 999.13 998.92 998.84 998.90 999.07 999.30 999.56 999.77 999.90 999.92 999.83 999.65 999.41 999.16 998.98 998.91 998.99 999.25 999.68 1000.26 1000.95 1001.71 1002.48 1003.22 1003.91 1004.53 1005.08 1005.58 1006.05 1006.53 1007.03 1007.56 1008.11 1008.68 1009.24 1009.76 1010.20 1010.53
1001.90 1001.49 1001.07 1000.64 1000.22 999.85 999.57 999.41 999.39 999.50 999.73 1000.04 1000.40 1000.74 1001.02 1001.22 1001.32 1001.33 1001.28 1001.20 1001.16 1001.20 1001.35 1001.62 1002.03 1002.54 1003.14 1003.77 1004.39 1004.98 1005.51 1005.97 1006.38 1006.74 1007.10 1007.47 1007.87 1008.32 1008.80 1009.31 1009.81 1010.27 1010.65 1010.94
1002.13 1001.77 1001.41 1001.04 1000.68 1000.37 1000.14 1000.01 1000.01 1000.15 1000.42 1000.79 1001.23 1001.68 1002.10 1002.47 1002.75 1002.95 1003.09 1003.19 1003.29 1003.43 1003.63 1003.92 1004.29 1004.72 1005.21 1005.70 1006.18 1006.61 1006.99 1007.32 1007.60 1007.85 1008.11 1008.39 1008.71 1009.08 1009.49 1009.93 1010.35 1010.75 1011.07 1011.30
1002.38 1002.10 1001.82 1001.53 1001.25 1000.99 1000.80 1000.71 1000.73 1000.89 1001.18 1001.58 1002.07 1002.60 1003.13 1003.63 1004.07 1004.43 1004.73 1004.98 1005.20 1005.42 1005.67 1005.95 1006.27 1006.63 1007.00 1007.37 1007.72 1008.03 1008.29 1008.50 1008.69 1008.86 1009.04 1009.25 1009.50 1009.80 1010.14 1010.50 1010.85 1011.17 1011.44 1011.61
1002.61 1002.45 1002.28 1002.10 1001.91 1001.72 1001.59 1001.52 1001.56 1001.73 1002.02 1002.44 1002.95 1003.53 1004.13 1004.72 1005.26 1005.74 1006.16 1006.51 1006.81 1007.09 1007.34 1007.61 1007.88 1008.16 1008.44 1008.71 1008.96 1009.17 1009.35 1009.49 1009.62 1009.73 1009.86 1010.02 1010.22 1010.46 1010.72 1011.01 1011.29 1011.54 1011.74 1011.87
1002.82 1002.80 1002.77 1002.71 1002.62 1002.53 1002.46 1002.44 1002.50 1002.68 1002.97 1003.39 1003.91 1004.50 1005.13 1005.76 1006.36 1006.91 1007.38 1007.79 1008.13 1008.41 1008.67 1008.90 1009.11 1009.33 1009.53 1009.73 1009.91 1010.06 1010.19 1010.30 1010.40 1010.49 1010.59 1010.72 1010.87 1011.05 1011.26 1011.47 1011.68 1011.87 1012.02 1012.11
1002.99 1003.13 1003.26 1003.34 1003.37 1003.38 1003.39 1003.42 1003.52 1003.71 1004.01 1004.42 1004.93 1005.52 1006.15 1006.78 1007.40 1007.96 1008.45 1008.86 1009.20 1009.47 1009.69 1009.88 1010.04 1010.20 1010.35 1010.49 1010.63 1010.76 1010.87 1010.97 1011.07 1011.16 1011.25 1011.35 1011.47 1011.60 1011.75 1011.91 1012.05 1012.19 1012.28 1012.34
1003.13 1003.44 1003.72 1003.94 1004.11 1004.22 1004.32 1004.42 1004.57 1004.79 1005.10 1005.51 1006.01 1006.58 1007.19 1007.81 1008.40 1008.94 1009.41 1009.79 1010.09 1010.32 1010.50 1010.64 1010.75 1010.86 1010.97 1011.09 1011.21 1011.34 1011.46 1011.57 1011.67 1011.77 1011.86 1011.95 1012.03 1012.13 1012.23 1012.33 1012.43 1012.51 1012.57 1012.60
1003.25 1003.71 1004.13 1004.49 1004.77 1004.99 1005.18 1005.36 1005.57 1005.83 1006.16 1006.58 1007.08 1007.64 1008.23 1008.82 1009.37 1009.87 1010.30 1010.64 1010.89 1011.07 1011.20 1011.29 1011.36 1011.44 1011.52 1011.62 1011.74 1011.87 1012.00 1012.13 1012.25 1012.35 1012.45 1012.52 1012.59 1012.65 1012.70 1012.75 1012.80 1012.84 1012.87 1012.88
1003.34 1003.93 1004.47 1004.93 1005.32 1005.64 1005.92 1006.18 1006.45 1006.77 1007.14 1007.59 1008.09 1008.65 1009.22 1009.78 1010.30 1010.77 1011.14 1011.43 1011.64 1011.77 1011.85 1011.90 1011.94 1011.99 1012.06 1012.16 1012.28 1012.41 1012.56 1012.70 1012.83 1012.93 1013.02 1013.07 1013.11 1013.13 1013.15 1013.15 1013.16 1013.16 1013.15 1013.14
1003.40 1004.09 1004.72 1005.27 1005.74 1006.15 1006.50 1006.84 1007.18 1007.56 1007.98 1008.46 1008.99 1009.55 1010.12 1010.67 1011.17 1011.59 1011.93 1012.18 1012.35 1012.44 1012.49 1012.51 1012.53 1012.57 1012.62 1012.72 1012.84 1012.98 1013.13 1013.27 1013.39 1013.49 1013.55 1013.58 1013.58 1013.57 1013.53 1013.49 1013.45 1013.41 1013.36 1013.32
1003.46 1004.21 1004.91 1005.52 1006.05 1006.52 1006.95 1007.35 1007.76 1008.20 1008.67 1009.19 1009.75 1010.33 1010.90 1011.44 1011.92 1012.32 1012.64 1012.86 1013.00 1013.08 1013.11 1013.11 1013.12 1013.15 1013.21 1013.29 1013.41 1013.54 1013.68 1013.80 1013.91 1013.98 1014.01 1014.00 1013.96 1013.89 1013.80 1013.71 1013.62 1013.53 1013.44 1013.36
1003.55 1004.35 1005.08 1005.73 1006.31 1006.83 1007.30 1007.76 1008.22 1008.71 1009.23 1009.78 1010.37 1010.96 1011.53 1012.06 1012.53 1012.92 1013.22 1013.43 1013.56 1013.63 1013.66 1013.66 1013.67 1013.70 1013.75 1013.83 1013.93 1014.05 1014.16 1014.26 1014.33 1014.35 1014.33 1014.27 1014.17 1014.05 1013.91 1013.76 1013.61 1013.47 1013.34 1013.20
1003.73 1004.54 1005.30 1005.98 1006.58 1007.13 1007.64 1008.14 1008.64 1009.15 1009.70 1010.27 1010.86 1011.45 1012.02 1012.53 1012.99 1013.36 1013.65 1013.85 1013.98 1014.05 1014.08 1014.09 1014.11 1014.14 1014.19 1014.26 1014.34 1014.43 1014.52 1014.57 1014.59 1014.56 1014.48 1014.36 1014.21 1014.02 1013.82 1013.61 1013.41 1013.22 1013.03 1012.84
1004.02 1004.85 1005.61 1006.31 1006.93 1007.50 1008.03 1008.54 1009.05 1009.58 1010.13 1010.70 1011.27 1011.83 1012.37 1012.85 1013.28 1013.62 1013.90 1014.09 1014.21 1014.28 1014.33 1014.35 1014.38 1014.41 1014.46 1014.52 1014.58 1014.64 1014.67 1014.68 1014.64 1014.56 1014.42 1014.24 1014.03 1013.78 1013.53 1013.27 1013.02 1012.77 1012.54 1012.31
1004.44 1005.28 1006.05 1006.75 1007.38 1007.96 1008.49 1009.01 1009.52 1010.03 1010.55 1011.08 1011.61 1012.12 1012.60 1013.03 1013.41 1013.72 1013.95 1014.13 1014.24 1014.32 1014.37 1014.40 1014.43 1014.47 1014.51 1014.56 1014.60 1014.62 1014.61 1014.57 1014.47 1014.33 1014.14 1013.91 1013.65 1013.36 1013.06 1012.76 1012.47 1012.19 1011.93 1011.67
1004.98 1005.83 1006.60 1007.30 1007.93 1008.51 1009.03 1009.54 1010.02 1010.50 1010.97 1011.44 1011.90 1012.33 1012.73 1013.09 1013.40 1013.65 1013.85 1013.99 1014.09 1014.16 1014.21 1014.25 1014.28 1014.32 1014.35 1014.38 1014.39 1014.37 1014.32 1014.23 1014.09 1013.90 1013.66 1013.39 1013.09 1012.78 1012.46 1012.15 1011.84 1011.55 1011.28 1011.01
1005.60 1006.44 1007.21 1007.91 1008.53 1009.09 1009.61 1010.08 1010.53 1010.96 1011.37 1011.76 1012.13 1012.47 1012.78 1013.05 1013.28 1013.47 1013.61 1013.72 1013.79 1013.85 1013.89 1013.92 1013.95 1013.98 1013.99 1013.99 1013.97 1013.92 1013.83 1013.69 1013.51 1013.29 1013.03 1012.73 1012.43 1012.11 1011.80 1011.49 1011.20 1010.93 1010.67 1010.42
1006.23 1007.05 1007.80 1008.49 1009.10 1009.65 1010.14 1010.59 1010.99 1011.36 1011.70 1012.02 1012.30 1012.55 1012.77 1012.95 1013.10 1013.21 1013.30 1013.36 1013.41 1013.44 1013.47 1013.49 1013.50 1013.51 1013.50 1013.47 1013.41 1013.32 1013.19 1013.02 1012.81 1012.56 1012.29 1012.00 1011.71 1011.41 1011.13 1010.87 1010.62 1010.39 1010.17 1009.96
1006.80 1007.59 1008.32 1008.98 1009.57 1010.10 1010.57 1010.98 1011.35 1011.67 1011.95 1012.19 1012.40 1012.56 1012.70 1012.80 1012.88 1012.94 1012.97 1013.00 1013.01 1013.02 1013.02 1013.02 1013.01 1012.99 1012.95 1012.88 1012.78 1012.65 1012.48 1012.28 1012.05 1011.79 1011.53 1011.26 1011.00 1010.75 1010.52 1010.32 1010.13 1009.96 1009.80 1009.65
Thickness
5679 5687 5687 5685 5685 5685 5681 5679 5674 5680 5683 5688 5691 5694 5696 5697 5697 5696 5696 5696 5696 5695 5694 5693 5692 5692 5692 5691 5690 5689 5687 5685 5683 5681 5679 5678 5675 5674 5672 5671 5669 5665 5662 5660
5671 5681 5681 5676 5679 5681 5679 5680 5678 5680 5679 5688 5690 5690 5689 5690 5691 5690 5690 5691 5691 5690 5689 5688 5687 5687 5686 5686 5685 5684 5682 5680 5679 5677 5675 5673 5671 5669 5667 5666 5664 5661 5658 5656
5654 5669 5671 5661 5671 5673 5672 5675 5676 5672 5677 5681 5681 5683 5683 5684 5685 5685 5685 5685 5685 5684 5684 5683 5683 5683 5681 5680 5679 5678 5676 5675 5673 5672 5670 5668 5666 5664 5662 5660 5659 5657 5654 5651
5645 5654 5645 5660 5674 5675 5671 5670 5672 5674 5675 5677 5677 5678 5679 5679 5678 5679 5679 5678 5678 5677 5677 5677 5677 5677 5675 5675 5673 5672 5670 5669 5668 5666 5664 5663 5661 5659 5657 5656 5654 5652 5650 5648
5634 5637 5644 5656 5664 5662 5662 5660 5665 5667 5669 5670 5672 5671 5670 5673 5673 5672 5673 5673 5672 5671 5671 5671 5670 5670 5669 5667 5667 5666 5664 5663 5662 5661 5659 5657 5655 5654 5653 5651 5649 5648 5646 5644
5629 5632 5632 5643 5656 5662 5659 5650 5659 5661 5661 5662 5664 5658 5658 5665 5666 5666 5666 5666 5665 5665 5665 5664 5663 5663 5662 5661 5660 5659 5659 5657 5656 5655 5654 5652 5651 5649 5648 5646 5645 5643 5641 5640
5621 5624 5629 5639 5648 5654 5640 5640 5651 5653 5654 5655 5654 5653 5655 5657 5657 5657 5658 5658 5659 5658 5657 5656 5656 5656 5654 5654 5652 5653 5652 5651 5650 5649 5648 5647 5646 5644 5643 5641 5640 5638 5637 5636
5612 5613 5618 5631 5636 5633 5632 5638 5642 5645 5646 5647 5647 5648 5649 5650 5649 5650 5651 5651 5651 5649 5648 5649 5649 5648 5647 5646 5646 5645 5645 5643 5642 5642 5642 5641 5639 5638 5637 5636 5634 5632 5631 5630
5606 5608 5613 5619 5621 5626 5629 5630 5634 5636 5638 5639 5640 5640 5641 5641 5641 5642 5643 5643 5642 5641 5640 5640 5640 5640 5638 5638 5638 5638 5637 5636 5636 5636 5635 5633 5632 5631 5630 5629 5627 5626 5625 5624
5600 5605 5609 5612 5616 5619 5622 5624 5627 5629 5630 5631 5631 5632 5633 5633 5634 5634 5634 5633 5633 5631 5631 5630 5631 5632 5631 5631 5631 5631 5630 5629 5629 5628 5628 5626 5625 5625 5623 5622 5620 5619 5619 5618
5592 5597 5601 5606 5607 5610 5613 5616 5618 5620 5621 5622 5623 5623 5625 5625 5625 5625 5625 5625 5624 5622 5622 5622 5622 5623 5623 5623 5624 5624 5623 5623 5622 5621 5621 5620 5619 5618 5617 5616 5614 5613 5613 5612
5582 5587 5588 5592 5599 5602 5604 5606 5609 5611 5612 5615 5615 5616 5617 5617 5617 5616 5616 5616 5615 5615 5614 5614 5614 5615 5615 5616 5616 5616 5616 5616 5615 5614 5614 5614 5613 5612 5612 5611 5610 5609 5607 5606
5578 5582 5583 5588 5592 5594 5596 5598 5600 5602 5603 5605 5607 5609 5610 5609 5609 5608 5608 5608 5608 5608 5608 5608 5608 5608 5609 5610 5610 5610 5609 5609 5609 5608 5608 5607 5606 5605 5604 5605 5604 5603 5602 5601
5573 5575 5577 5581 5582 5585 5588 5590 5591 5592 5594 5596 5598 5601 5601 5601 5601 5600 5600 5601 5601 5601 5601 5601 5601 5602 5603 5604 5604 5603 5603 5603 5603 5602 5601 5599 5598 5598 5598 5597 5597 5597 5596 5595
5566 5568 5570 5572 5575 5577 5579 5581 5582 5583 5584 5586 5589 5591 5592 5592 5592 5592 5593 5593 5593 5594 5594 5594 5594 5595 5596 5597 5597 5596 5596 5596 5595 5595 5594 5592 5591 5591 5591 5590 5589 5589 5590 5589
5558 5561 5563 5565 5566 5567 5569 5570 5571 5573 5574 5576 5578 5581 5582 5583 5583 5584 5584 5585 5585 5586 5586 5587 5587 5589 5590 5590 5589 5589 5589 5590 5589 5588 5587 5586 5585 5584 5583 5583 5582 5582 5582 5582
5550 5552 5554 5556 5558 5559 5560 5562 5563 5564 5565 5568 5570 5572 5573 5574 5574 5575 5576 5577 5578 5578 5579 5580 5581 5582 5583 5583 5583 5583 5582 5582 5582 5581 5581 5580 5579 5578 5577 5576 5576 5576 5576 5576
5546 5548 5549 5550 5551 5552 5553 5555 5556 5557 5558 5561 5564 5565 5565 5566 5566 5567 5568 5569 5569 5570 5571 5573 5574 5575 5576 5576 5576 5575 5575 5575 5574 5574 5574 5573 5572 5572 5571 5571 5571 5571 5571 5572
5541 5542 5544 5545 5546 5546 5547 5548 5549 5550 5552 5554 5556 5557 5558 5558 5558 5559 5560 5560 5561 5562 5563 5565 5566 5567 5567 5568 5568 5567 5567 5568 5567 5567 5566 5566 5565 5565 5565 5564 5565 5565 5565 5566
5536 5537 5538 5539 5540 5541 5541 5542 5543 5544 5546 5547 5548 5549 5549 5550 5551 5552 5552 5552 5553 5555 5556 5557 5558 5559 5560 5560 5560 5560 5560 5560 5560 5559 5559 5558 5558 5557 5557 5557 5558 5558 5558 5559
5529 5531 5532 5532 5533 5534 5535 5536 5536 5537 5539 5540 5541 5541 5542 5542 5543 5543 5544 5545 5547 5548 5548 5549 5551 5551 5552 5552 5552 5552 5552 5551 5551 5551 5551 5551 5551 5550 5550 5551 5551 5552 5552 5553
5522 5524 5525 5526 5526 5527 5528 5528 5529 5530 5531 5532 5534 5534 5534 5535 5536 5536 5537 5538 5540 5541 5542 5543 5544 5544 5544 5544 5545 5545 5545 5544 5544 5544 5544 5544 5544 5544 5544 5544 5545 5545 5546 5546
5514 5516 5517 5518 5519 5519 5521 5521 5522 5523 5523 5524 5525 5525 5526 5527 5528 5529 5531 5533 5534 5534 5535 5536 5536 5536 5536 5536 5537 5537 5538 5538 5538 5538 5538 5538 5538 5538 5538 5538 5539 5540 5540 5541
5508 5509 5510 5510 5510 5511 5511 5512 5513 5514 5514 5515 5516 5517 5519 5520 5521 5523 5525 5526 5527 5528 5529 5529 5528 5529 5529 5530 5530 5530 5530 5531 5531 5531 5532 5532 5532 5532 5532 5532 5533 5534 5535 5535
5502 5502 5503 5502 5502 5501 5502 5503 5505 5506 5507 5507 5508 5510 5511 5513 5514 5516 5517 5519 5520 5520 5521 5522 5522 5522 5523 5523 5523 5524 5524 5524 5525 5525 5525 5525 5525 5526 5526 5526 5527 5528 5528 5529
5495 5495 5495 5494 5494 5493 5494 5496 5496 5497 5498 5499 5501 5502 5504 5506 5508 5509 5511 5512 5513 5513 5514 5515 5515 5515 5516 5516 5517 5517 5518 5518 5518 5519 5519 5519 5519 5520 5520 5521 5521 5522 5522 5522
5488 5488 5487 5487 5487 5488 5488 5489 5489 5490 5491 5492 5494 5496 5497 5499 5501 5503 5504 5505 5506 5507 5508 5508 5508 5509 5509 5510 5510 5511 5511 5511 5512 5512 5512 5512 5512 5512 5513 5514 5514 5515 5515 5516